This is the latest recevied weather packets stored in our database for station/object KI4NG. If no packets are shown the sender has not sent any weather packets the latest 10 day(s).
| Time | Temp. | Humidity | Pressure | Rain* | Wind** | Luminosity | Snow |
|---|---|---|---|---|---|---|---|
| 1777988946 | 17.78° C | 68% | 1014.8 hPa | 0 mm | - | 205 W/m² | - |
| 1777988642 | 17.78° C | 69% | 1014.9 hPa | 0 mm | - | 180 W/m² | - |
| 1777988339 | 17.78° C | 68% | 1015.1 hPa | 0 mm | - | 172 W/m² | - |
| 1777988036 | 17.78° C | 64% | 1014.8 hPa | 0 mm | - | 153 W/m² | - |
| 1777987731 | 17.22° C | 64% | 1014.9 hPa | 0 mm | - | 163 W/m² | - |
| 1777987429 | 17.22° C | 66% | 1014.7 hPa | 0 mm | - | 156 W/m² | - |
| 1777987126 | 17.22° C | 66% | 1014.9 hPa | 0 mm | - | 157 W/m² | - |
| 1777986823 | 17.22° C | 69% | 1014.7 hPa | 0 mm | - | 205 W/m² | - |
| 1777986521 | 17.22° C | 66% | 1015 hPa | 0 mm | - | 248 W/m² | - |
| 1777986218 | 17.22° C | 69% | 1014.7 hPa | 0 mm | - | 198 W/m² | - |
| 1777985916 | 17.22° C | 67% | 1015 hPa | 0 mm | - | 188 W/m² | - |
| 1777985613 | 17.22° C | 69% | 1014.4 hPa | 0 mm | - | 222 W/m² | - |
| 1777985309 | 16.67° C | 69% | 1014.8 hPa | 0 mm | - | 250 W/m² | - |
| 1777985006 | 16.11° C | 73% | 1014.8 hPa | 0 mm | - | 219 W/m² | - |
| 1777984702 | 15.56° C | 74% | 1014.6 hPa | 0 mm | - | 189 W/m² | - |
| 1777984399 | 15.56° C | 76% | 1014.5 hPa | 0 mm | - | 171 W/m² | - |
| 1777984095 | 15° C | 74% | 1014.7 hPa | 0 mm | - | 168 W/m² | - |
| 1777983793 | 15° C | 76% | 1014.6 hPa | 0 mm | - | 136 W/m² | - |
| 1777983489 | 14.44° C | 76% | 1014.6 hPa | 0 mm | - | 121 W/m² | - |
| 1777983186 | 13.89° C | 76% | 1014.4 hPa | 0 mm | - | 107 W/m² | - |
| 1777982882 | 13.89° C | 79% | 1014.4 hPa | 0 mm | - | 94 W/m² | - |
| 1777982579 | 13.33° C | 79% | 1014.5 hPa | 0 mm | - | 80 W/m² | - |
| 1777982277 | 13.33° C | 77% | 1014.4 hPa | 0 mm | - | 71 W/m² | - |
| 1777981975 | 12.78° C | 80% | 1014 hPa | 0 mm | - | 67 W/m² | - |
| 1777981672 | 12.78° C | 79% | 1014.3 hPa | 0 mm | - | 58 W/m² | - |
* Rain latest hour (hover to see other rain measurements)
** Current wind speed in m/s (hover to see current wind gust speed)